Waarnemingen

Advertentie
Mijn weer
L9F, Nederland (6207): temperatuur & dauwpunt: 13.10.2017 12:00:00 - 19.10.2017 12:00:00 (CEST)L9F, Nederland (6207): windsnelheid & windstoten: 13.10.2017 12:00:00 - 19.10.2017 12:00:00 (CEST)L9F, Nederland (6207): windrichting: 13.10.2017 12:00:00 - 19.10.2017 12:00:00 (CEST)L9F, Nederland (6207): luchtdruk: 13.10.2017 12:00:00 - 19.10.2017 12:00:00 (CEST)L9F, Nederland (6207): zicht: 13.10.2017 12:00:00 - 19.10.2017 12:00:00 (CEST)
Datum & Tijd tt [°C] td [°C] ff [km/u] ff [kn] fx [km/u] fx [kn] dd ppp [hPa] vv [km]
19.10.2017 12:00:00 14,7 13,7 34 18 36 19 Z 1010,2 4,2
19.10.2017 11:00:00 14,4 13,6 28 15 29 16 ZZO 1010,0 4,9
19.10.2017 10:00:00 14,0 13,2 21 11 18 10 ZZO 1010,0 4,0
19.10.2017 09:00:00 14,1 13,5 16 9 18 10 ZZO 1010,0 4,0
19.10.2017 08:00:00 14,0 13,7 13 7 14 8 Z 1010,1 -
19.10.2017 07:00:00 14,2 13,7 11 6 22 12 Z 1010,2 -
19.10.2017 06:00:00 14,4 13,4 24 13 25 14 Z 1010,8 -
19.10.2017 05:00:00 14,3 13,2 21 11 22 12 ZZO 1010,8 -
19.10.2017 04:00:00 14,2 13,2 16 9 18 10 ZZO 1011,2 -
19.10.2017 03:00:00 14,2 12,9 16 9 18 10 ZZO 1011,3 -
19.10.2017 02:00:00 14,2 12,7 22 12 25 14 ZZO 1011,6 -
19.10.2017 01:00:00 14,6 12,5 26 14 25 14 ZO 1011,6 -
19.10.2017 00:00:00 14,8 12,0 24 13 25 14 ZO 1011,9 -
18.10.2017 23:00:00 14,8 11,9 21 11 22 12 OZO 1012,5 10
18.10.2017 22:00:00 14,6 12,2 22 12 29 16 O 1012,5 10
18.10.2017 21:00:00 14,6 11,5 28 15 32 18 O 1012,7 10
18.10.2017 20:00:00 14,5 10,8 34 18 32 18 O 1012,8 10
18.10.2017 19:00:00 14,7 11,1 31 17 32 18 O 1012,8 10
18.10.2017 18:00:00 15,1 11,5 29 16 29 16 ONO 1013,0 10
18.10.2017 17:00:00 14,6 10,7 28 15 29 16 ONO 1013,1 10
18.10.2017 16:00:00 13,8 10,3 28 15 29 16 ONO 1013,3 10
18.10.2017 15:00:00 13,8 10,2 24 13 25 14 NO 1013,9 10
18.10.2017 14:00:00 18,7 11,3 11 6 14 8 ONO 1014,3 10
18.10.2017 13:00:00 17,4 10,7 11 6 11 6 O 1014,6 10
18.10.2017 12:00:00 17,4 10,8 9 5 11 6 O 1014,7 10
18.10.2017 11:00:00 16,8 10,3 11 6 11 6 ONO 1014,8 10
18.10.2017 10:00:00 15,8 9,8 8 4 7 4 ONO 1015,0 10
18.10.2017 09:00:00 14,2 8,5 8 4 22 12 N 1014,8 10
18.10.2017 08:00:00 14,1 8,3 13 7 25 14 - 1014,7 10
18.10.2017 07:00:00 14,1 7,5 15 8 29 16 - 1015,0 10
18.10.2017 06:00:00 14,2 8,1 13 7 22 12 - 1015,1 10
18.10.2017 05:00:00 14,2 8,8 13 7 25 14 - 1015,1 10
18.10.2017 04:00:00 14,3 7,9 13 7 18 10 W 1015,4 10
18.10.2017 03:00:00 14,4 9,4 18 10 22 12 W 1016,0 10
18.10.2017 02:00:00 14,6 8,0 22 12 25 14 W 1016,1 10
18.10.2017 01:00:00 14,7 8,6 26 14 29 16 WZW 1016,2 10
18.10.2017 00:00:00 14,8 8,2 28 15 29 16 WZW 1016,3 10
17.10.2017 23:00:00 14,8 8,3 29 16 32 18 WZW 1016,3 10
17.10.2017 22:00:00 14,8 9,0 35 19 32 18 WZW 1016,3 10
17.10.2017 21:00:00 14,7 9,4 37 20 40 21 WZW 1016,2 -
17.10.2017 20:00:00 14,7 9,6 42 23 47 25 WZW 1016,1 -
17.10.2017 19:00:00 14,6 9,4 44 24 47 25 WZW 1015,9 -
17.10.2017 18:00:00 14,5 9,0 46 25 50 27 WZW 1015,8 -
17.10.2017 17:00:00 14,5 8,9 54 29 54 29 WZW 1016,1 10
17.10.2017 16:00:00 14,5 8,8 52 28 50 27 ZW 1016,2 10
17.10.2017 15:00:00 14,4 8,6 55 30 50 27 ZW 1016,8 10
17.10.2017 14:00:00 14,4 8,4 54 29 54 29 ZW 1017,1 10
17.10.2017 13:00:00 14,3 8,0 55 30 58 31 ZW 1017,5 10
17.10.2017 12:00:00 14,3 8,6 55 30 58 31 ZW 1017,5 10
17.10.2017 11:00:00 14,5 8,7 55 30 58 31 ZW 1017,3 10
17.10.2017 10:00:00 14,6 8,8 57 31 58 31 ZW 1017,1 10
17.10.2017 09:00:00 14,6 8,4 57 31 61 33 ZW 1016,7 10
17.10.2017 08:00:00 14,7 8,6 61 33 61 33 WZW 1016,4 10
17.10.2017 07:00:00 14,9 8,9 57 31 61 33 WZW 1016,2 10
17.10.2017 06:00:00 15,1 9,2 59 32 58 31 WZW 1016,3 10
17.10.2017 05:00:00 15,1 10,0 65 35 61 33 ZW 1016,1 10
17.10.2017 04:00:00 15,4 11,2 61 33 61 33 WZW 1016,2 10
17.10.2017 03:00:00 15,8 11,2 57 31 58 31 ZW 1016,0 10
17.10.2017 02:00:00 16,4 11,6 55 30 58 31 ZW 1016,1 10
17.10.2017 01:00:00 16,8 11,7 44 24 58 31 ZW 1015,9 10
17.10.2017 00:00:00 17,4 12,2 55 30 61 33 ZW 1015,7 10
16.10.2017 23:00:00 17,6 14,7 61 33 61 33 ZW 1015,4 10
16.10.2017 22:00:00 18,2 14,8 65 35 61 33 ZZW 1015,1 10
16.10.2017 21:00:00 18,6 15,4 63 34 76 41 ZZW 1015,4 10
16.10.2017 20:00:00 18,5 15,5 68 37 61 33 Z 1015,4 10
16.10.2017 19:00:00 18,4 15,4 67 36 61 33 Z 1015,4 10
16.10.2017 18:00:00 18,1 15,3 65 35 58 31 Z 1015,4 10
16.10.2017 17:00:00 18,2 15,5 54 29 50 27 Z 1015,9 10
16.10.2017 16:00:00 17,2 15,1 41 22 50 27 Z 1017,1 10
16.10.2017 15:00:00 17,2 14,9 46 25 43 23 ZZW 1017,4 10
16.10.2017 14:00:00 16,6 15,1 34 18 32 18 ZW 1018,0 10
16.10.2017 13:00:00 16,4 15,1 26 14 29 16 ZW 1018,5 10
16.10.2017 12:00:00 16,5 15,1 34 18 32 18 ZW 1018,3 10
16.10.2017 11:00:00 16,3 15,1 35 19 32 18 ZW 1018,4 9
16.10.2017 10:00:00 16,0 14,9 34 18 32 18 ZW 1017,9 7
16.10.2017 09:00:00 15,7 14,7 34 18 32 18 ZZW 1017,5 5
16.10.2017 08:00:00 15,7 14,8 35 19 32 18 ZZW 1017,3 4,2
16.10.2017 07:00:00 15,6 14,9 31 17 32 18 ZZW 1017,6 4,8
16.10.2017 06:00:00 15,8 14,9 31 17 32 18 ZW 1017,6 7
16.10.2017 05:00:00 15,7 14,7 31 17 32 18 ZW 1017,5 6
16.10.2017 04:00:00 15,7 14,6 29 16 29 16 ZW 1018,0 8
16.10.2017 03:00:00 15,7 14,8 28 15 25 14 ZW 1018,1 6
16.10.2017 02:00:00 15,9 14,8 34 18 32 18 ZW 1018,2 8
16.10.2017 01:00:00 16,1 14,7 34 18 40 21 ZW 1017,8 10
16.10.2017 00:00:00 16,4 14,6 41 22 40 21 ZW 1017,8 10
15.10.2017 23:00:00 16,5 14,5 37 20 36 19 ZW 1017,9 10
15.10.2017 22:00:00 16,6 14,4 39 21 40 21 ZW 1017,5 10
15.10.2017 21:00:00 16,8 14,0 42 23 43 23 ZW 1017,4 10
15.10.2017 20:00:00 17,4 13,9 48 26 58 31 ZW 1017,6 10
15.10.2017 19:00:00 18,3 13,3 63 34 61 33 ZW 1016,9 10
15.10.2017 18:00:00 17,9 13,3 63 34 58 31 ZZW 1016,6 10
15.10.2017 17:00:00 18,3 13,1 59 32 58 31 ZZW 1016,9 10
15.10.2017 16:00:00 17,1 14,6 54 29 50 27 Z 1017,4 10
15.10.2017 15:00:00 16,8 14,5 52 28 50 27 Z 1017,8 10
15.10.2017 14:00:00 16,3 14,2 52 28 50 27 Z 1018,2 10
15.10.2017 13:00:00 15,9 14,1 48 26 47 25 Z 1019,0 8
15.10.2017 12:00:00 15,6 13,9 44 24 43 23 Z 1019,6 8
15.10.2017 11:00:00 15,6 13,9 46 25 43 23 Z 1020,0 7
15.10.2017 10:00:00 15,6 14,1 46 25 47 25 Z 1020,4 6
15.10.2017 09:00:00 15,6 14,2 48 26 47 25 Z 1020,6 6
15.10.2017 08:00:00 15,6 14,3 44 24 43 23 Z 1020,9 5
15.10.2017 07:00:00 15,3 14,0 42 23 40 21 Z 1021,6 7
15.10.2017 06:00:00 15,3 13,6 31 17 36 19 ZZW 1022,0 10
15.10.2017 05:00:00 15,3 14,0 34 18 32 18 ZZW 1022,3 10
15.10.2017 04:00:00 15,3 14,6 39 21 36 19 ZZW 1022,4 10
15.10.2017 03:00:00 15,3 14,8 37 20 36 19 ZW 1022,8 9
15.10.2017 02:00:00 15,3 14,8 34 18 32 18 ZZW 1023,2 7
15.10.2017 01:00:00 15,5 14,9 31 17 29 16 ZW 1023,4 9
15.10.2017 00:00:00 15,6 14,9 34 18 32 18 ZW 1023,7 10
14.10.2017 23:00:00 15,7 15,0 35 19 32 18 ZW 1023,6 10
14.10.2017 22:00:00 15,8 14,8 35 19 32 18 ZW 1023,8 10
14.10.2017 21:00:00 15,8 14,8 34 18 36 19 ZW 1023,6 10
14.10.2017 20:00:00 15,9 14,8 37 20 40 21 ZW 1023,7 10
14.10.2017 19:00:00 15,9 14,6 39 21 47 25 ZW 1023,2 10
14.10.2017 18:00:00 16,0 14,7 46 25 47 25 ZW 1022,6 10
14.10.2017 17:00:00 15,9 14,7 44 24 47 25 ZW 1022,4 10
14.10.2017 16:00:00 15,9 14,7 46 25 43 23 ZW 1022,5 10
14.10.2017 15:00:00 16,0 14,6 44 24 47 25 ZW 1022,4 10
14.10.2017 14:00:00 16,0 14,6 46 25 54 29 ZW 1022,2 10
14.10.2017 13:00:00 16,0 14,6 48 26 47 25 ZW 1022,3 10
14.10.2017 12:00:00 15,9 14,6 48 26 50 27 ZW 1022,4 10
14.10.2017 11:00:00 15,9 14,7 48 26 47 25 ZW 1022,1 10
14.10.2017 10:00:00 15,8 14,6 46 25 47 25 ZW 1022,0 10
14.10.2017 09:00:00 15,9 14,6 39 21 43 23 ZW 1021,6 10
14.10.2017 08:00:00 15,8 14,6 41 22 43 23 ZW 1021,1 10
14.10.2017 07:00:00 15,9 14,6 42 23 47 25 ZW 1021,2 10
14.10.2017 06:00:00 15,9 14,5 44 24 50 27 ZW 1020,7 10
14.10.2017 05:00:00 15,9 14,5 46 25 47 25 ZW 1020,6 10
14.10.2017 04:00:00 16,0 14,6 48 26 47 25 ZW 1020,4 10
14.10.2017 03:00:00 16,1 14,6 50 27 47 25 ZW 1020,3 10
14.10.2017 02:00:00 16,3 14,6 50 27 47 25 ZW 1020,2 10
14.10.2017 01:00:00 16,3 14,7 52 28 50 27 ZW 1019,9 10
14.10.2017 00:00:00 16,3 14,9 55 30 54 29 ZW 1019,6 10
13.10.2017 23:00:00 16,2 14,9 57 31 54 29 ZW 1019,8 10
13.10.2017 22:00:00 16,4 15,0 55 30 54 29 ZW 1019,9 10
13.10.2017 21:00:00 16,3 15,1 54 29 54 29 ZW 1019,6 -
13.10.2017 20:00:00 16,3 15,1 57 31 54 29 ZW 1019,6 -
13.10.2017 19:00:00 16,1 15,0 54 29 54 29 ZW 1019,3 -
13.10.2017 18:00:00 16,0 14,9 54 29 58 31 ZW 1019,4 -
13.10.2017 17:00:00 16,1 14,6 57 31 58 31 ZW 1019,5 10
13.10.2017 16:00:00 15,9 14,4 57 31 58 31 ZW 1019,5 10
13.10.2017 15:00:00 15,5 14,2 55 30 58 31 ZW 1019,7 -
13.10.2017 14:00:00 15,2 14,0 55 30 58 31 ZW 1019,7 -
13.10.2017 13:00:00 15,2 13,9 55 30 58 31 ZW 1019,8 -
13.10.2017 12:00:00 15,6 13,8 55 30 54 29 ZW 1019,9 -

tt = temperatuur
td = dauwpunt
ff = windsnelheid
fx = windstoten
dd = windrichting
ppp = luchtdruk
vv = zicht

Weerstations in de omgeving